Vertical_Velocity
-0 -0 -0 -0 -0 -0 -0 -0 -0 -0 -0 -1 -1 -1 -1 -1 -1 -1 -1 -1 -1 -1 -1 -0 -0 -0 -1 -1 -1 -1 -1 -0 -0 0 0 -0 -0 -0 0 0 0 0 0 0 -0 -0 -0 -1 0 1 3 3 1 -2 -4 -1 1 2 1 0 0 0 0 0 0 -0 -0 -1 -1 -1 -0 -0 -0 -0 -0 -1 -0 -0 -0 -0 -1 -1 0 0 -0 -1 -1 -1 -1 -1 -1 -0 -0 -0 -1 -1 -1 -1 -0 -0 -0 0 0
-0 -0 0 -0 -0 -0 0 0 0 0 -0 -0 -0 -0 -1 -1 -1 -1 -1 -1 -1 -1 -1 -0 -0 -0 -0 -0 -1 -1 -1 -1 -0 0 0 -0 -0 -0 0 0 0 0 0 0 -0 -0 -0 -0 -0 1 3 3 1 -2 -3 -0 2 2 1 0 0 0 0 0 0 0 -0 -0 -0 -0 -0 -0 -0 0 -0 -0 -0 -0 0 -0 -0 -1 -0 0 0 -0 -1 -1 -1 -1 -1 -1 -0 -0 -1 -1 -1 -1 -1 -1 -1 -0 0
-0 0 0 -0 -0 -0 0 0 0 0 -0 -0 -0 -0 -0 -0 -1 -1 -1 -1 -1 -1 -1 -0 0 0 -0 -0 -1 -1 -1 -1 -0 -0 0 -0 -0 -0 0 0 0 0 0 0 0 0 -0 -0 0 1 2 2 1 -1 -2 0 1 1 0 0 0 1 0 0 0 0 0 -0 -0 -0 -0 -0 0 0 0 -0 -0 -0 0 0 0 -0 -0 0 0 0 0 -0 -1 -1 -1 -1 -1 -1 -1 -1 -1 -1 -1 -1 -1 -0 0
0 0 0 -0 -0 0 0 0 0 0 -0 -0 0 0 -0 -0 -0 -1 -1 -1 -1 -1 -1 -0 0 0 0 -0 -0 -1 -1 -1 -0 -0 -0 -0 -0 0 0 0 0 0 0 0 0 0 0 -0 0 1 2 2 0 -1 -1 0 1 1 0 0 1 1 1 1 0 0 0 0 -0 -0 -0 -0 -0 0 0 -0 -0 -0 0 0 0 0 0 0 0 1 1 0 -0 -0 -1 -1 -1 -0 -0 -0 -0 -1 -1 -1 -1 -0 0
1 0 0 -0 0 0 1 1 0 0 0 0 0 0 0 0 -0 -0 -0 -0 -0 -0 -1 -0 0 0 0 0 -0 -0 -1 -1 -0 -0 -0 -0 -0 0 0 1 1 1 0 0 0 0 0 0 0 1 2 1 0 -0 -0 0 0 0 0 0 1 1 1 1 0 0 0 0 0 -0 -0 -0 -0 -0 0 -0 -0 -0 0 0 0 0 0 0 1 1 1 1 1 0 0 -0 -0 -0 -0 -0 -0 -0 -1 -1 -0 -0 0
1 0 0 0 0 0 1 1 1 0 0 0 0 0 0 0 0 -0 -0 -0 -0 -0 -0 -0 0 0 1 0 0 -0 -0 -0 -0 -0 -0 -0 -0 0 1 1 1 1 1 0 0 0 0 0 1 1 2 1 -0 -1 0 0 1 0 0 0 0 1 0 0 0 0 0 0 0 0 -0 -0 -0 -0 0 0 -0 -0 -0 0 0 0 1 1 1 1 1 1 1 1 1 0 -0 -0 -0 -0 -0 -0 -0 -1 -1 -0 -0
0 0 0 0 0 0 1 1 1 1 1 0 0 0 1 1 1 0 0 0 0 -0 -0 -0 0 0 1 1 0 0 0 -0 -0 -0 -0 -0 -0 0 1 1 1 1 1 1 1 1 1 1 1 2 2 0 -1 -1 0 1 1 0 -0 0 0 0 0 0 0 1 1 1 0 0 0 0 0 0 0 0 0 0 0 0 0 0 1 1 1 1 1 1 1 1 1 1 0 0 0 -0 -0 -0 -0 -1 -1 -1 -1
-0 0 0 0 0 0 0 1 1 1 1 1 1 1 1 1 1 1 0 0 0 0 -0 -0 0 0 1 1 1 1 0 0 0 -0 -0 -0 -0 0 1 1 1 1 1 1 1 1 1 1 2 2 2 0 -1 -1 0 1 1 1 0 0 0 0 0 0 0 1 1 1 1 1 1 1 0 0 1 1 1 0 0 0 0 0 1 1 1 1 1 1 1 1 1 1 0 0 0 0 -0 -0 -0 -0 -1 -1 -1
0 0 0 0 0 0 0 1 1 1 1 1 1 1 1 1 1 1 1 0 0 0 0 0 0 0 0 1 1 1 1 0 0 0 0 0 0 0 1 1 1 1 1 1 1 1 1 2 2 2 2 0 -1 -1 0 1 1 1 1 1 1 1 1 1 1 1 1 1 1 1 1 1 1 1 1 1 1 1 1 0 0 0 1 1 1 1 1 1 1 1 1 1 1 0 0 0 0 -0 -0 -0 -0 -1 -1
0 1 0 0 1 1 1 1 1 1 1 1 1 1 1 1 1 1 1 1 1 0 0 0 0 0 0 0 1 1 1 1 1 0 0 0 0 0 1 1 1 1 1 1 1 1 1 2 2 2 2 0 -1 -1 0 1 1 1 1 1 1 1 1 1 1 1 1 1 1 1 1 1 1 1 1 1 1 1 1 1 1 1 1 1 1 1 1 1 1 1 1 1 0 0 0 0 0 0 -0 -0 -0 -0 -0
1 1 0 1 1 1 1 1 1 1 1 1 2 2 1 1 1 1 1 1 1 1 0 0 0 0 0 0 1 1 1 1 1 1 1 0 0 0 1 1 1 1 1 1 1 1 1 1 2 2 1 0 -1 -1 0 1 1 1 1 1 1 1 1 1 1 1 1 1 1 1 1 1 1 1 1 1 1 1 1 1 1 1 1 1 1 0 0 1 1 1 1 1 1 0 0 0 0 -0 -0 -0 -0 -0 0
1 1 0 1 1 1 1 1 1 1 1 1 1 1 1 1 1 1 1 1 1 1 1 0 0 0 0 0 0 1 1 1 1 1 1 1 1 0 1 1 1 1 0 1 1 1 1 1 2 2 1 0 -0 0 1 1 1 1 1 1 1 1 1 1 1 1 1 1 1 1 1 1 1 1 1 1 1 1 1 1 1 1 1 1 1 0 0 0 1 1 1 1 1 0 0 0 0 0 0 0 -0 0 0
1 1 0 1 1 1 1 1 1 1 1 1 1 1 1 1 1 1 1 1 1 1 1 1 0 0 0 0 0 0 1 1 1 1 1 1 1 1 1 1 1 1 1 0 0 1 1 1 2 2 1 -0 0 1 2 1 1 1 1 1 1 1 1 1 1 1 1 1 1 1 1 1 1 1 1 1 1 1 1 1 1 1 1 1 1 0 0 0 0 0 0 0 0 0 0 0 0 0 0 0 0 0 0
1 0 1 1 1 1 1 1 1 1 1 1 1 1 1 1 1 1 1 1 1 1 1 1 0 0 0 0 0 0 0 1 1 1 1 1 1 1 1 1 1 1 1 0 0 0 1 1 2 2 1 -0 1 2 2 1 1 1 1 1 1 1 1 1 1 1 1 1 1 1 1 1 1 1 1 1 1 1 1 1 1 1 1 1 0 0 0 0 0 0 0 0 0 0 0 0 0 1 1 1 1 1 0
1 0 0 0 0 1 1 1 1 1 1 1 1 1 1 1 1 1 1 1 1 1 0 1 0 0 0 0 0 0 0 1 1 1 1 1 1 1 1 1 2 2 1 1 0 0 1 1 2 2 1 0 1 2 2 2 1 1 1 1 1 1 1 1 1 1 1 1 1 1 1 1 1 1 1 1 1 1 1 1 1 1 1 0 0 0 0 -0 -0 -0 -0 0 0 0 0 0 1 1 1 1 1 1 0
0 -0 0 0 0 0 0 0 0 0 0 1 1 0 0 0 0 1 1 1 1 0 0 0 0 0 0 0 0 0 1 1 1 1 1 1 1 1 1 2 2 2 2 1 0 0 1 1 2 2 1 0 1 1 2 2 2 1 1 1 1 1 1 2 1 1 1 1 1 1 1 1 1 1 1 1 1 1 1 1 1 0 0 0 0 0 0 -0 -0 -0 -0 0 0 0 0 0 0 0 1 1 1 1 0
-0 -0 0 0 0 0 -0 0 0 0 0 0 0 0 0 0 0 0 0 0 0 0 0 0 0 0 -0 0 0 1 1 1 1 1 1 1 1 1 1 1 2 2 2 2 1 1 1 1 1 2 1 1 1 1 1 1 1 1 1 1 1 2 2 2 1 1 1 1 1 1 1 1 1 1 1 1 1 1 1 1 0 0 0 0 0 0 0 0 0 0 0 0 0 0 0 0 0 0 0 0 0 0 0
-1 -1 -0 0 0 0 -0 -0 -0 -0 -0 -0 0 0 0 0 0 0 0 0 0 0 0 0 0 0 -0 -0 0 0 1 1 1 0 0 0 1 1 1 1 1 1 2 1 1 1 1 1 1 1 1 1 1 1 1 1 1 1 1 1 1 1 2 1 1 1 1 1 1 1 1 1 1 1 1 1 1 1 1 0 0 0 0 0 0 0 0 0 0 0 0 0 0 -0 -0 -0 -0 -0 -0 0 0 0 1
-1 -1 -1 -0 0 0 -0 -0 -1 -1 -1 -0 -0 0 -0 -0 -0 -0 0 0 0 0 0 0 0 0 -0 -0 0 0 1 1 1 0 0 0 0 0 1 1 1 1 1 1 1 1 1 1 1 1 1 1 1 1 1 1 1 1 1 1 1 1 2 1 1 1 1 1 1 1 1 2 2 2 2 1 1 1 0 0 0 0 0 0 0 0 0 0 0 0 0 -0 -0 -0 -0 -0 -1 -1 -1 -0 0 1 1
-0 -1 -1 -1 -0 -0 -0 -0 -1 -1 -1 -1 -0 -0 -0 -0 -0 -0 -0 -0 0 0 0 0 0 0 -0 -0 -0 -0 0 0 0 0 0 0 0 0 0 0 0 0 0 0 1 1 1 1 1 1 1 1 1 1 1 1 1 1 1 1 1 2 2 1 1 1 1 1 1 2 2 2 2 2 2 1 1 1 0 0 0 0 0 0 0 0 0 0 0 -0 -0 -0 -0 -0 -0 -0 -1 -0 -0 -0 0 0 1
-0 -0 -1 -1 -1 -0 -0 -1 -1 -1 -2 -1 -1 -1 -1 -1 -0 -0 -0 0 0 0 0 0 0 0 -0 -1 -1 -1 -0 0 0 0 0 0 0 0 0 0 0 0 -0 -0 0 0 0 1 1 0 0 1 1 1 1 1 1 1 1 1 1 1 1 1 1 2 2 2 2 2 2 2 2 2 2 2 1 1 0 0 0 0 0 0 0 0 0 -0 -0 -0 -0 -0 -0 -0 -0 -0 -0 -0 0 0 0 0 0
0 -0 -1 -1 -1 -1 -1 -1 -1 -2 -2 -2 -1 -1 -1 -1 -1 -0 0 0 0 0 0 0 -0 -0 -1 -1 -1 -1 -1 -0 0 0 0 0 0 0 0 0 0 0 -0 -0 -0 -0 -0 0 0 0 0 0 0 0 0 1 1 1 1 1 1 1 1 1 1 1 2 2 2 2 2 2 2 2 2 2 1 1 1 0 0 0 0 0 0 -0 -0 -0 -0 -0 -0 -0 -0 0 0 0 0 0 0 0 0 0 0
0 0 -1 -1 -1 -1 -1 -1 -1 -2 -3 -2 -1 -1 -1 -1 -0 -0 0 0 0 -0 -0 -0 -0 -1 -1 -0 -1 -1 -1 -0 0 0 0 0 0 0 0 -0 -0 -0 -0 -0 -0 -0 -0 -0 -0 -0 -0 -0 -0 0 0 0 0 0 0 0 1 1 1 1 1 1 2 2 2 2 2 2 2 2 2 2 2 1 1 1 0 -0 -0 -0 -0 -0 -0 -0 -0 -0 -0 -0 -0 -0 -0 0 0 1 1 1 1 1 1
0 0 -1 -1 -1 -1 -1 -1 -1 -2 -3 -2 -2 -1 -2 -1 -0 -0 -0 0 0 -0 -0 -0 -0 -0 -0 0 -0 -1 -0 -0 0 0 1 0 0 0 0 -0 -0 -0 -0 -0 -0 -0 -0 -0 -0 -0 -1 -1 -1 -0 -0 -1 -0 -0 -0 0 1 1 1 1 1 1 2 2 2 2 1 1 1 1 1 1 1 1 1 1 0 0 -0 -0 -0 -0 0 0 0 -0 -0 -0 -0 -0 -0 -0 0 1 1 1 2 2 2
0 0 -1 -1 -1 -1 -1 -0 -1 -2 -3 -2 -2 -1 -1 -1 -0 -0 -0 -0 -0 -0 -0 0 0 0 1 0 0 -0 -0 -0 -0 0 0 0 0 0 -0 -0 -0 -0 -0 -0 -0 -0 -0 -1 -1 -1 -1 -1 -1 -1 -1 -1 -1 -1 -0 -0 0 1 1 1 1 1 2 2 2 2 1 1 1 1 1 1 1 1 1 1 0 0 0 0 0 0 0 0 0 0 0 -0 -0 -0 -0 -0 0 1 2 2 2 2 2
0 0 -1 -1 -1 -0 -0 0 -1 -2 -2 -2 -1 -1 -1 -1 -0 -0 -0 -0 -0 -0 0 0 0 1 1 1 0 -0 -0 -0 -0 -0 -0 0 0 0 -0 0 0 0 0 -0 -0 -0 -0 -1 -1 -1 -1 -1 -1 -1 -1 -1 -1 -1 -1 -0 -0 0 1 1 1 1 1 1 1 1 1 1 1 1 0 1 1 1 1 0 0 0 0 0 0 0 0 0 0 0 0 -0 -0 -0 0 0 1 1 2 2 2 1 1
0 0 -1 -1 -1 -0 0 0 -0 -1 -2 -2 -1 -0 -0 -1 -1 -0 -0 -0 -0 0 0 0 1 1 0 0 0 -0 -1 -1 -1 -1 -0 -0 0 0 0 0 0 0 0 -0 -0 -0 -0 -0 -1 -1 -1 -1 -1 -1 -1 -1 -1 -1 -1 -1 -0 -0 -0 0 0 0 0 1 1 1 1 1 0 0 0 1 0 0 0 0 0 -0 -0 -0 -0 -0 -0 -0 -0 0 0 0 0 0 1 1 2 2 2 1 0 -0 -0
0 0 -1 -1 -1 -0 0 0 -0 -1 -2 -1 -1 -0 -0 -0 -1 -1 -0 -0 -0 -0 0 0 0 1 0 0 0 -0 -1 -1 -1 -1 -1 -0 -0 0 0 0 0 0 0 0 -0 -0 -0 -0 -0 -1 -1 -1 -1 -1 -0 -0 -0 -0 -1 -1 -1 -1 -1 -0 -0 -0 -0 0 0 0 0 0 0 0 0 0 0 0 -0 -0 -0 -1 -1 -1 -1 -1 -1 -0 -0 -0 0 0 0 1 1 1 1 1 1 -0 -1 -1 -1
0 -0 -1 -1 -1 -1 -0 -0 -0 -0 -1 -1 -1 -1 -1 -1 -1 -1 -1 -0 -0 -0 -0 -0 0 0 1 0 0 0 -0 -0 -0 -0 -1 -0 -0 -0 0 0 0 0 0 0 0 -0 -0 -0 -0 0 0 -0 -0 -0 -0 -0 0 0 -0 -1 -1 -1 -1 -1 -1 -0 -0 -0 -0 -0 -0 -0 -0 0 0 0 0 -0 -0 -0 -1 -1 -1 -1 -1 -1 -1 -1 -0 -0 0 0 0 1 1 1 1 0 -0 -1 -0 1 2
-0 -0 -0 -1 -1 -1 -1 -1 -0 -0 -1 -0 -0 -1 -1 -1 -1 -1 -1 -1 -0 -0 -1 -0 0 1 1 0 0 0 -0 0 0 -0 -1 -0 -0 -0 0 0 -0 -0 0 0 0 0 0 0 0 0 1 0 0 -0 -0 -0 0 0 0 -0 -1 -1 -1 -1 -1 -0 -0 -0 -0 -0 -0 -0 -0 -0 -0 -0 -0 -0 -1 -1 -1 -1 -1 -1 -1 -1 -1 -0 -0 -0 -0 -0 0 0 0 0 0 0 -1 0 1 3 5
-1 -0 -0 -1 -1 -1 -1 -1 -1 -0 -0 -0 -0 -1 -2 -1 -1 -1 -2 -1 -0 -0 -0 -0 0 1 1 1 0 0 0 1 1 0 -0 -0 -0 -0 -0 0 0 0 0 0 0 1 1 1 1 1 1 1 1 1 0 0 0 0 1 0 -0 -0 -0 -0 -0 -0 0 -0 -0 -0 -0 -0 -1 -1 -1 -1 -1 -1 -1 -1 -1 -1 -1 -1 -1 -1 -1 -0 -0 -0 -0 0 0 0 0 1 1 0 0 2 4 5 4
-0 -0 -0 -1 -1 -1 -2 -1 -1 -0 -0 -0 -0 -1 -1 -0 -0 -1 -1 -1 -1 -1 -1 -1 -0 1 1 1 1 0 1 1 1 0 -0 -0 0 0 0 0 0 0 0 1 1 1 1 1 1 1 1 1 1 1 1 0 0 0 1 1 1 0 0 0 0 0 0 0 0 0 0 -0 -1 -1 -1 -1 -1 -1 -1 -1 -1 -1 -1 -1 -1 -1 -1 -1 -1 -1 -1 -0 -0 -0 0 1 1 1 2 4 5 4 1
1 0 -0 -1 -1 -1 -0 -0 -0 -1 -0 -0 -1 -1 -1 0 0 0 -1 -1 -1 -1 -1 -1 -1 0 1 1 1 0 1 1 0 0 -1 -0 -0 0 0 1 1 0 0 1 1 0 1 1 2 1 1 2 1 1 1 1 0 0 1 1 1 1 1 1 1 1 1 1 1 1 0 0 -0 -0 -0 -0 -0 -0 -0 -0 -1 -1 -1 -1 -1 -1 -1 -2 -1 -1 -1 -1 -1 -0 0 1 1 2 4 5 4 2 -0
1 1 0 -0 -0 -0 0 -0 -1 -1 0 0 -0 -1 -1 -0 1 1 1 -0 -1 -2 -2 -1 -1 -0 1 1 1 0 0 0 -0 -0 -1 -1 -0 0 1 1 0 0 1 0 0 0 1 2 2 1 2 2 1 1 2 1 1 1 1 1 1 1 1 1 1 1 1 1 1 1 0 0 0 0 0 0 0 0 0 -0 -0 -0 -0 -1 -1 -1 -1 -1 -1 -1 -1 -0 -0 0 0 0 1 3 6 3 1 -1 -1
1 1 1 1 1 1 1 -0 -1 -1 0 1 0 -1 -2 -1 0 2 2 1 -0 -2 -2 -2 -2 -1 -0 1 1 0 -0 -1 -1 -1 -1 -1 -1 -0 1 0 0 0 0 0 -0 0 1 1 1 1 1 1 1 1 1 2 1 1 0 1 1 1 1 1 1 1 1 1 1 1 1 1 1 1 1 1 1 1 0 -0 -0 -0 -0 -0 0 0 0 0 0 0 0 2 2 1 -1 0 2 4 5 3 1 -1 -1
1 2 2 2 1 1 1 -0 -1 -1 0 2 1 -0 -2 -1 -0 1 2 2 1 -1 -3 -2 -2 -1 -1 0 0 -0 -1 -1 -1 -1 -1 -1 -1 -1 0 -0 -0 -0 0 -0 -0 0 1 1 1 1 1 0 1 1 1 1 1 1 0 0 0 1 1 1 1 1 1 1 1 1 1 1 1 1 1 1 0 0 -0 -1 -1 -0 0 1 1 2 1 1 1 0 0 1 2 2 1 2 3 3 2 1 0 -0 -1
1 1 2 2 2 2 1 0 -1 -1 0 2 2 1 -1 -1 -1 -0 1 1 1 -0 -1 -2 -2 -2 -1 -0 0 -0 -1 -1 -1 -2 -2 -1 -1 -1 -0 -1 -1 -1 -0 -1 -0 1 1 1 0 1 1 0 1 1 1 1 1 1 -0 -0 -0 -0 0 0 0 0 0 0 1 1 1 0 0 0 0 -0 -0 -1 -1 -1 -1 -0 0 0 1 1 1 1 1 1 1 1 2 4 8 7 5 2 -1 -1 -2 -1 -1
0 1 1 1 1 1 1 0 1 1 1 2 2 2 0 -1 -1 -1 -0 0 0 0 0 -1 -1 -2 -1 -0 -0 -0 -1 -1 -1 -2 -2 -1 -1 -0 -0 -1 -1 -1 -1 -1 0 1 1 0 1 1 1 1 1 1 1 1 1 0 -0 -1 -1 -2 -1 -1 -0 -0 -0 -0 0 0 1 0 0 -0 -0 -1 -1 -1 -1 -1 -1 -1 -1 -1 -1 -1 -0 1 1 2 2 3 6 10 12 9 5 1 -1 -2 -2 -2 -2
0 0 0 1 0 0 0 2 2 3 2 2 2 2 1 -0 -1 -2 -1 -1 -0 1 2 1 0 -1 -1 -1 -1 -0 -0 -0 -1 -1 -1 -1 -0 -0 -1 -1 -1 -1 -1 -1 0 1 1 0 1 1 1 1 1 1 1 2 1 0 0 -0 -1 -2 -2 -2 -1 -1 -1 -0 -0 0 0 0 0 0 -0 -1 -1 -1 -1 -1 -1 -2 -3 -3 -3 -2 -1 0 1 2 2 2 4 5 6 5 3 1 -2 -2 -3 -2 -2
0 0 1 1 1 0 1 2 3 3 2 1 1 1 1 0 -1 -2 -2 -1 -0 1 2 2 1 0 -1 -1 -0 -0 -0 0 0 -0 -0 0 -0 -1 -1 -1 -1 -1 -1 -0 0 1 1 0 0 0 1 1 1 1 2 2 1 1 1 1 0 -1 -1 -2 -2 -2 -1 -0 -0 -0 0 0 0 0 -0 -0 -0 -0 -1 -1 -1 -0 -0 -1 -2 -2 -1 -0 0 1 1 1 1 1 1 1 1 -1 -2 -2 -2 -2 -1
-0 0 2 3 5 6 3 2 2 1 1 -0 0 2 4 2 0 -1 -2 -1 -1 0 1 2 1 0 -1 -0 -0 0 0 1 1 1 0 0 -0 -1 -1 -1 -1 -1 -1 0 0 0 0 0 -0 0 0 0 1 2 2 1 1 1 1 1 1 1 0 -0 -1 -2 -2 -1 -1 -1 -1 -0 0 0 -0 -0 -0 -0 0 3 6 6 5 4 2 0 -0 0 0 0 0 0 1 0 0 -0 -1 -1 -2 -2 -2 -1 -1
-1 0 3 7 10 9 3 1 -0 -1 -1 -2 1 5 9 5 3 1 -0 -0 -1 -1 0 1 1 0 -1 -0 0 0 0 1 1 1 0 -0 -1 -1 -1 -1 -1 -1 -1 -1 -0 0 0 -0 -0 -0 -0 0 1 2 1 1 1 1 1 1 1 1 1 1 -0 -1 -2 -2 -2 -1 -1 -0 0 0 -0 -0 -0 1 3 6 6 4 3 3 3 2 1 1 0 1 0 1 1 1 -0 -1 -2 -2 -2 -2 -1 -1 -1
-1 1 4 8 8 4 -1 -1 -1 -2 -2 -0 5 10 11 7 4 1 1 1 -0 -1 -1 -0 0 0 -0 -0 0 0 0 0 0 0 -0 -1 -1 -1 -1 -1 -1 -1 -1 -1 -1 -0 0 -0 -0 -1 -1 0 1 1 1 1 0 0 1 1 1 1 2 1 0 -0 -1 -1 -2 -1 -0 0 0 0 0 1 1 2 2 1 -0 -1 -2 -1 1 2 2 1 1 1 1 1 1 1 -1 -2 -2 -2 -2 -2 -2 -2 -2
-0 1 5 9 6 0 -2 -2 -2 -2 -2 6 9 9 6 4 2 1 2 1 0 -1 -2 -1 -0 1 1 1 0 0 -0 -0 -0 -0 -1 -1 -1 -1 -1 -0 -0 -1 -1 -1 -0 -0 -0 -0 -1 -1 -1 0 1 1 0 0 0 -0 -0 0 0 1 1 1 1 0 -0 -1 -1 -0 1 1 0 1 1 1 1 0 0 -1 -1 -2 -3 -2 -0 1 1 0 0 0 2 2 2 0 -1 -2 -2 -2 -2 -2 -2 -2 -1
0 1 4 9 5 -1 -3 -3 -4 -2 3 10 8 3 -1 -0 1 2 3 2 0 -1 -2 -1 0 1 2 1 0 -0 -0 -0 -1 -1 -1 -1 -1 -1 -0 0 0 -0 -0 -0 -0 -0 -1 -1 -1 -1 -1 -0 0 0 -0 -0 -1 -1 -1 -0 -0 -0 0 0 0 0 -0 -0 0 1 1 0 -0 0 0 0 -0 -0 -0 -1 -1 -3 -3 -2 -0 1 1 0 1 1 2 2 1 0 -1 -2 -2 -2 -2 -2 -2 -1 -1
0 1 2 4 2 -1 -3 -1 -0 2 5 6 3 -0 -2 -1 0 2 3 1 -1 -1 -1 -0 1 2 2 1 1 0 -0 -1 -1 -1 -2 -1 -1 -0 0 0 1 1 0 0 0 -0 -1 -2 -2 -2 -1 -1 -0 -0 -0 -1 -1 -1 -1 -1 -1 -0 -0 -1 -0 -0 -0 -0 -0 0 0 -0 -1 -1 -1 -1 -0 0 1 0 -1 -2 -3 -2 -0 1 1 2 2 3 3 2 1 0 -1 -1 -2 -2 -2 -2 -2 -1 -1
-0 1 1 1 0 -1 -2 5 9 8 6 2 0 -1 -2 -2 -1 1 1 -1 -2 -2 -1 0 1 2 1 1 1 0 -0 -1 -2 -2 -2 -2 -1 0 1 1 1 1 1 1 0 -0 -2 -2 -2 -2 -2 -1 -1 -1 -1 -1 -1 -1 -1 -1 -1 -1 -1 -1 -1 -1 -1 -1 -0 0 0 0 -0 -1 -1 -0 0 1 1 1 -0 -1 -2 -1 -1 0 1 2 3 3 3 2 1 0 -1 -1 -2 -2 -2 -2 -2 -1 -1
-0 0 1 1 0 -1 -2 5 11 14 12 7 3 -1 -2 -3 -2 0 1 0 -1 -1 -1 -0 1 1 1 0 -0 -0 -0 -1 -1 -2 -2 -2 -1 0 1 1 0 0 1 1 0 -1 -2 -1 -1 -1 -1 -1 -1 -1 -1 -1 -1 -1 -1 -1 -1 -1 -0 -1 -1 -1 -1 -1 -0 0 0 0 0 0 0 0 0 1 1 1 0 -1 -1 -1 -0 0 1 2 2 2 2 1 0 -0 -1 -1 -2 -2 -2 -2 -2 -2 -1
0 0 1 1 0 -1 -2 0 5 8 9 6 3 -1 -2 -2 -1 0 1 2 1 0 -0 0 0 1 1 1 -1 -2 -1 -1 -1 -1 -1 -0 -0 -0 -0 -0 -1 -1 0 0 -0 -1 -1 1 0 -1 -1 -1 -1 -1 -1 -1 -1 -1 -1 -1 -1 -1 -0 -0 -1 -1 -1 -1 -0 0 0 0 0 0 0 0 0 1 1 1 0 -0 -1 -0 0 1 1 2 2 2 1 1 0 -1 -1 -1 -1 -1 -1 -1 -2 -1 -1
0 0 1 1 1 0 -1 -1 0 2 3 2 2 0 -0 -0 -0 0 1 1 1 1 1 -0 -1 -0 1 2 -0 -2 0 0 -0 -1 -0 -0 0 -0 -2 -2 -2 -1 0 0 -0 -0 2 3 2 -0 -1 -1 -1 -1 -1 -1 -1 -1 -1 -1 -1 -1 0 -0 -0 -1 -1 -1 -0 0 0 -0 -0 0 -0 0 0 0 0 0 0 -0 -0 0 1 1 2 2 2 1 1 0 0 -0 -1 -1 -1 -1 -1 -1 -1 -1 -0
0 0 0 1 1 1 1 0 0 0 1 1 1 1 0 0 0 0 0 1 1 0 0 -1 -2 -3 -1 -1 -1 -1 2 0 -0 0 -0 -2 -2 -1 -3 -3 -2 -1 1 0 -1 -1 2 3 2 -0 -1 -1 -1 -1 -1 -1 -1 -1 -1 -1 -1 -1 0 0 0 -0 -1 -1 -1 -0 -0 -0 -0 -0 0 0 0 0 1 0 -0 -1 -1 -0 0 1 2 2 2 1 1 0 0 -0 -0 -0 -1 -1 -1 -1 -1 -0 -0
-1 -1 -1 0 1 1 1 1 1 0 0 0 0 -0 -0 0 0 0 0 1 0 -0 -1 -2 -3 -3 -3 -1 -1 -1 -0 -1 -1 -1 -2 -5 -4 -3 -3 -3 -2 -1 1 -1 -2 -2 2 3 2 1 -0 -0 -1 -1 -1 -1 -1 -1 -1 -1 -1 -0 1 1 0 -0 -1 -1 -1 -0 -0 -1 -0 0 0 0 1 1 1 1 0 -1 -1 -1 -1 0 1 1 1 1 0 0 0 -0 -0 -1 -1 -1 -1 -1 -1 -1 -1
-3 -2 -2 -1 -0 1 1 2 1 0 0 0 0 -0 -0 0 0 0 1 1 1 0 -0 -1 -1 -2 -2 -1 -0 0 -1 -1 -1 -2 -1 -2 -3 -4 -4 -2 -3 -3 -2 -2 -3 -2 4 4 3 1 -1 -1 -1 -2 -1 -1 -1 -1 -1 -1 -1 -0 0 0 0 -0 -1 -1 -1 -0 -0 -1 -0 0 1 0 1 1 1 1 1 0 -1 -1 -1 -1 -0 0 1 0 -0 -1 -1 -1 -1 -1 -1 -1 -1 -1 -1 -1 -1
-1 -2 -1 -1 -1 0 1 1 1 0 1 1 0 0 0 0 1 1 1 2 1 1 1 -1 -1 -0 0 -1 -0 0 -0 -0 -0 -0 -0 -0 -1 -3 -5 -4 -4 -3 -3 -2 -1 1 5 6 3 -1 -2 -1 -1 -2 -1 0 0 -0 0 -0 -0 0 1 1 1 0 -0 -0 -0 -1 -1 -1 0 1 1 0 0 1 1 1 1 0 0 -0 -1 -1 -1 -0 -0 -0 -1 -1 -1 -1 -1 -1 -1 -1 -1 -1 -1 -1 -1
5 3 2 1 1 1 0 1 1 1 0 0 0 0 0 0 1 1 2 2 1 1 1 -0 -1 -1 -1 -2 -1 0 1 0 1 2 2 1 0 -1 -4 -5 -4 -3 -2 -1 -0 2 5 3 -1 -4 -2 0 -0 -1 -1 -0 0 0 0 0 0 0 1 1 1 1 1 1 0 -1 -2 -1 0 1 1 1 1 1 1 0 0 0 1 1 1 0 0 0 -0 -0 -1 -1 -1 -1 -1 -2 -2 -2 -1 -1 -1 -1 -1
8 7 5 5 4 4 3 3 2 2 1 1 0 0 -0 0 1 1 1 1 1 1 0 -0 -1 -1 -1 -1 -1 -1 1 1 2 2 2 1 -0 -1 -2 -3 -3 -3 -3 -3 -1 1 4 2 -1 -3 -0 2 0 -1 -1 0 0 0 0 0 0 1 1 1 2 2 2 1 0 -1 -1 -0 1 1 2 2 1 1 1 1 0 0 1 1 2 2 2 2 1 0 -0 -1 -1 -1 -1 -1 -1 -1 -1 -1 -1 -1 -0
5 4 5 4 4 4 4 3 3 2 2 1 0 0 0 1 1 1 1 1 1 0 0 -0 -0 -1 -1 -1 -1 -1 0 1 1 1 1 -1 -1 -1 -1 -1 -2 -3 -3 -3 -1 1 2 1 0 -0 -0 1 -0 -2 -1 0 0 0 0 -0 -0 -0 -0 0 1 2 2 2 1 -0 -1 -0 0 1 1 2 2 2 2 2 1 1 0 1 1 2 2 2 1 0 -0 -1 -1 -1 -1 -1 -1 -0 0 0 0 -0 -0
3 2 1 1 1 1 1 1 1 1 1 1 1 1 1 1 1 1 0 0 0 0 0 1 1 0 -1 -1 -1 -1 0 1 1 -0 -2 -2 -1 -0 0 -1 -2 -3 -2 -2 -1 0 0 0 -0 -0 1 1 -0 -2 -1 -1 -2 -3 -2 -3 -3 -3 -4 -3 -2 -1 0 0 -0 -1 -1 -0 0 1 2 3 3 4 4 3 2 1 0 -0 -0 -0 0 0 -0 -1 -1 -1 -1 -1 -1 -0 -0 0 0 0 0 -0 -0
2 1 0 0 0 1 1 1 0 0 0 0 1 1 1 0 0 0 0 0 0 0 1 1 1 0 -0 -1 -1 -0 0 1 0 -1 -2 -2 -0 1 1 -1 -2 -2 -2 -1 -1 -1 -1 -1 -1 -1 1 0 0 -0 -1 -3 -4 -5 -5 -5 -5 -5 -5 -6 -5 -4 -2 -1 -1 -1 -1 -1 -0 1 3 4 5 6 6 5 4 2 1 -0 -1 -2 -2 -2 -2 -2 -2 -2 -2 -2 -1 -1 -0 0 0 0 0 0 0
-0 0 1 1 1 1 1 1 1 1 1 1 1 1 1 0 -0 -0 0 0 0 0 1 1 1 0 1 0 0 0 1 0 0 0 -0 -1 -0 1 1 -1 -1 -1 0 -0 -1 -1 -2 -1 -1 -0 -1 -2 -0 2 2 1 -1 -2 -3 -3 -2 -2 -3 -4 -4 -3 -2 -1 -1 -1 -1 -1 -1 -0 1 2 3 4 4 4 4 4 3 0 -1 -2 -3 -3 -3 -3 -2 -2 -2 -2 -2 -1 -0 0 0 -0 -0 0 0
-0 -0 0 1 1 2 2 2 2 2 1 1 1 1 2 1 0 0 0 0 0 1 1 1 1 1 1 1 1 1 1 1 1 1 0 0 0 0 0 -1 -1 -0 1 1 1 0 -1 -1 -1 -1 -2 -4 -3 -0 2 5 4 2 -1 -1 -0 -0 -1 -1 -1 -0 0 -0 0 0 0 -0 -1 -0 0 0 0 0 0 2 3 4 4 2 0 -1 -2 -2 -3 -2 -2 -2 -2 -2 -2 -1 -1 -0 -0 -1 -1 -0 1
Height
5869 5870 5870 5871 5871 5872 5872 5873 5873 5874 5874 5874 5874 5874 5875 5875 5875 5875 5876 5876 5876 5877 5877 5877 5878 5878 5878 5878 5878 5878 5879 5879 5879 5879 5879 5879 5879 5879 5880 5880 5880 5880 5880 5880 5880 5880 5880 5880 5880 5881 5881 5881 5880 5879 5879 5880 5880 5880 5880 5880 5880 5880 5880 5880 5880 5880 5880 5880 5880 5880 5880 5880 5880 5880 5879 5879 5879 5879 5879 5879 5879 5879 5879 5878 5878 5878 5877 5877 5877 5877 5877 5877 5877 5876 5876 5876 5875 5875 5875 5875 5874 5874 5874
5868 5869 5869 5869 5870 5871 5871 5872 5872 5872 5873 5873 5873 5874 5874 5874 5874 5874 5875 5875 5875 5876 5876 5876 5877 5877 5877 5877 5877 5877 5878 5878 5878 5878 5878 5879 5879 5879 5879 5879 5879 5879 5879 5879 5879 5879 5879 5879 5879 5880 5880 5880 5879 5879 5879 5879 5879 5879 5879 5879 5879 5879 5879 5879 5879 5879 5879 5879 5879 5879 5879 5879 5879 5879 5879 5879 5879 5879 5879 5878 5878 5878 5878 5878 5877 5877 5876 5876 5876 5876 5876 5876 5876 5875 5875 5875 5874 5874 5874 5874 5874 5873 5873
5866 5867 5868 5868 5869 5869 5870 5870 5871 5871 5871 5872 5872 5872 5873 5873 5873 5874 5874 5874 5874 5875 5875 5875 5876 5876 5876 5876 5876 5876 5877 5877 5877 5877 5878 5878 5878 5878 5878 5878 5878 5878 5878 5878 5878 5878 5878 5879 5879 5879 5879 5879 5879 5878 5878 5878 5879 5879 5879 5879 5879 5879 5879 5879 5879 5879 5879 5879 5878 5878 5878 5878 5878 5878 5878 5878 5878 5878 5878 5878 5877 5877 5877 5877 5876 5876 5876 5875 5875 5875 5875 5875 5874 5874 5874 5874 5874 5873 5873 5873 5872 5872 5872
5865 5865 5866 5867 5867 5868 5869 5869 5869 5869 5870 5870 5871 5871 5871 5872 5872 5872 5873 5873 5873 5874 5874 5874 5874 5875 5875 5875 5875 5875 5876 5876 5876 5876 5877 5877 5877 5877 5877 5877 5877 5878 5878 5878 5878 5878 5878 5878 5878 5878 5878 5878 5878 5877 5877 5878 5878 5878 5878 5878 5878 5878 5878 5878 5878 5878 5878 5878 5878 5877 5877 5877 5877 5877 5877 5877 5877 5877 5877 5877 5876 5876 5876 5876 5876 5875 5875 5875 5874 5874 5874 5874 5874 5873 5873 5873 5873 5872 5872 5872 5871 5871 5871
5863 5864 5864 5865 5866 5866 5867 5867 5868 5868 5869 5869 5869 5870 5870 5871 5871 5871 5871 5872 5872 5873 5873 5873 5874 5874 5874 5874 5874 5874 5874 5875 5875 5875 5875 5876 5876 5876 5876 5876 5877 5877 5877 5877 5877 5877 5877 5877 5877 5877 5877 5877 5877 5877 5877 5877 5877 5877 5877 5877 5877 5877 5877 5877 5877 5877 5877 5877 5877 5876 5876 5876 5876 5876 5876 5876 5876 5876 5876 5876 5875 5875 5875 5875 5875 5874 5874 5874 5874 5873 5873 5873 5872 5872 5872 5872 5871 5871 5871 5870 5870 5870 5870
5862 5862 5863 5864 5864 5865 5865 5866 5866 5867 5867 5868 5868 5869 5869 5869 5870 5870 5870 5871 5871 5871 5872 5872 5872 5873 5873 5873 5873 5873 5874 5874 5874 5874 5874 5874 5875 5875 5875 5875 5876 5876 5876 5876 5876 5876 5876 5876 5876 5876 5876 5876 5876 5876 5876 5876 5876 5876 5876 5876 5876 5876 5876 5876 5876 5876 5876 5876 5876 5875 5875 5875 5875 5875 5875 5875 5875 5875 5875 5875 5874 5874 5874 5874 5874 5874 5873 5873 5873 5872 5872 5872 5871 5871 5871 5870 5870 5870 5869 5869 5869 5869 5869
5860 5860 5861 5862 5863 5863 5864 5864 5865 5865 5866 5866 5867 5867 5868 5868 5868 5869 5869 5869 5870 5870 5870 5870 5871 5871 5871 5872 5872 5872 5872 5873 5873 5873 5873 5874 5874 5874 5874 5874 5874 5875 5875 5875 5875 5875 5875 5875 5875 5875 5875 5875 5874 5875 5875 5875 5875 5875 5875 5875 5875 5875 5875 5875 5875 5875 5875 5875 5875 5874 5874 5874 5874 5874 5874 5874 5874 5874 5874 5874 5874 5873 5873 5873 5873 5873 5872 5872 5872 5871 5871 5871 5870 5870 5869 5869 5869 5869 5868 5868 5868 5867 5867
5859 5859 5860 5860 5861 5862 5862 5863 5864 5864 5864 5865 5865 5866 5866 5867 5867 5867 5868 5868 5868 5869 5869 5869 5869 5870 5870 5870 5871 5871 5871 5871 5872 5872 5872 5872 5873 5873 5873 5873 5874 5874 5874 5874 5874 5874 5874 5874 5874 5874 5874 5874 5874 5874 5874 5874 5874 5874 5874 5874 5874 5874 5874 5874 5874 5874 5874 5874 5874 5874 5874 5874 5874 5873 5873 5873 5873 5873 5873 5873 5872 5872 5872 5872 5872 5871 5871 5871 5870 5870 5870 5869 5869 5869 5869 5868 5868 5867 5867 5867 5866 5866 5866
5857 5857 5858 5859 5859 5860 5861 5861 5862 5862 5863 5863 5864 5864 5865 5865 5865 5866 5866 5867 5867 5867 5868 5868 5868 5869 5869 5869 5869 5869 5870 5870 5870 5871 5871 5871 5871 5872 5872 5872 5872 5872 5873 5873 5873 5873 5873 5873 5873 5873 5873 5873 5873 5873 5873 5873 5873 5873 5873 5873 5873 5873 5873 5873 5873 5873 5873 5873 5873 5873 5873 5872 5872 5872 5872 5872 5872 5872 5872 5871 5871 5871 5871 5871 5870 5870 5870 5869 5869 5869 5869 5868 5868 5868 5867 5867 5866 5866 5866 5865 5865 5864 5864
5855 5855 5856 5857 5858 5859 5859 5860 5860 5861 5861 5862 5862 5863 5863 5864 5864 5864 5865 5865 5865 5866 5866 5866 5867 5867 5867 5868 5868 5868 5869 5869 5869 5869 5870 5870 5870 5870 5871 5871 5871 5871 5871 5872 5872 5872 5872 5872 5872 5872 5872 5872 5871 5872 5872 5872 5872 5872 5872 5872 5872 5872 5872 5872 5872 5872 5872 5872 5872 5872 5871 5871 5871 5871 5871 5871 5871 5871 5870 5870 5870 5870 5870 5869 5869 5869 5869 5868 5868 5868 5867 5867 5867 5866 5866 5865 5865 5865 5864 5864 5864 5863 5863
5854 5854 5854 5855 5856 5857 5857 5858 5859 5859 5859 5860 5861 5861 5862 5862 5863 5863 5863 5864 5864 5864 5864 5865 5865 5865 5866 5866 5866 5867 5867 5868 5868 5868 5869 5869 5869 5869 5869 5869 5870 5870 5870 5870 5871 5871 5871 5871 5871 5871 5871 5870 5870 5871 5871 5871 5871 5871 5871 5871 5871 5871 5871 5871 5871 5871 5871 5870 5870 5870 5870 5870 5870 5870 5870 5869 5869 5869 5869 5869 5869 5869 5868 5868 5868 5868 5867 5867 5867 5866 5866 5866 5865 5865 5864 5864 5864 5863 5863 5862 5862 5862 5861
5852 5852 5853 5854 5854 5855 5856 5856 5857 5857 5858 5859 5859 5859 5860 5860 5861 5861 5862 5862 5862 5863 5863 5863 5864 5864 5864 5864 5865 5865 5866 5866 5867 5867 5867 5868 5868 5868 5868 5869 5869 5869 5869 5869 5869 5869 5870 5870 5870 5870 5869 5869 5869 5870 5870 5870 5870 5870 5870 5870 5870 5870 5870 5870 5869 5869 5869 5869 5869 5869 5869 5869 5869 5869 5869 5868 5868 5868 5868 5868 5867 5867 5867 5867 5866 5866 5866 5865 5865 5865 5864 5864 5864 5864 5863 5863 5862 5862 5861 5861 5860 5860 5860
5850 5850 5851 5851 5852 5853 5854 5854 5855 5855 5856 5857 5857 5858 5859 5859 5859 5860 5860 5860 5861 5861 5862 5862 5862 5862 5863 5863 5864 5864 5864 5865 5865 5866 5866 5866 5867 5867 5867 5867 5867 5868 5868 5868 5868 5868 5868 5869 5869 5869 5868 5868 5869 5869 5869 5869 5869 5869 5869 5869 5869 5869 5869 5869 5869 5868 5868 5868 5868 5868 5868 5868 5868 5867 5867 5867 5867 5867 5866 5866 5866 5866 5865 5865 5865 5865 5864 5864 5864 5864 5863 5863 5862 5862 5862 5861 5861 5860 5860 5859 5859 5859 5858
5847 5848 5849 5849 5850 5851 5852 5853 5853 5854 5854 5855 5856 5856 5857 5857 5858 5858 5859 5859 5859 5859 5860 5860 5861 5861 5861 5862 5862 5863 5863 5864 5864 5864 5864 5865 5865 5866 5866 5866 5866 5866 5866 5867 5867 5867 5867 5867 5867 5867 5867 5867 5867 5868 5867 5867 5867 5867 5867 5867 5867 5867 5867 5867 5867 5867 5867 5867 5867 5867 5867 5866 5866 5866 5866 5865 5865 5865 5865 5865 5864 5864 5864 5864 5864 5863 5863 5863 5862 5862 5862 5861 5861 5860 5860 5859 5859 5859 5859 5858 5858 5857 5857
5845 5846 5847 5848 5848 5849 5850 5851 5851 5852 5853 5853 5854 5854 5855 5855 5856 5856 5857 5857 5858 5858 5859 5859 5859 5859 5860 5860 5861 5861 5862 5862 5862 5863 5863 5864 5864 5864 5864 5865 5865 5865 5865 5865 5865 5865 5866 5866 5866 5866 5866 5866 5866 5866 5866 5866 5866 5866 5866 5866 5866 5866 5866 5866 5866 5866 5866 5866 5865 5865 5865 5865 5865 5864 5864 5864 5864 5864 5864 5863 5863 5863 5863 5862 5862 5862 5861 5861 5861 5860 5860 5859 5859 5859 5859 5858 5858 5857 5857 5856 5856 5856 5855
5843 5844 5845 5845 5846 5847 5848 5849 5849 5850 5851 5852 5852 5853 5853 5854 5854 5855 5855 5856 5856 5856 5857 5857 5858 5858 5859 5859 5859 5860 5860 5861 5861 5861 5862 5862 5863 5863 5863 5864 5864 5864 5864 5864 5864 5864 5864 5864 5864 5864 5864 5864 5864 5865 5865 5865 5865 5865 5865 5865 5865 5865 5865 5865 5865 5864 5864 5864 5864 5864 5864 5864 5864 5863 5863 5863 5863 5862 5862 5862 5862 5861 5861 5861 5860 5860 5860 5859 5859 5859 5858 5858 5858 5857 5857 5856 5856 5856 5855 5855 5854 5854 5854
5841 5842 5843 5844 5844 5845 5846 5847 5848 5848 5849 5850 5850 5851 5851 5852 5853 5853 5854 5854 5854 5855 5855 5856 5856 5857 5857 5857 5858 5858 5859 5859 5859 5860 5860 5861 5861 5861 5862 5862 5862 5863 5863 5863 5863 5863 5863 5863 5863 5863 5863 5863 5863 5863 5863 5863 5863 5864 5864 5864 5864 5864 5864 5864 5863 5863 5863 5863 5863 5863 5863 5862 5862 5862 5862 5861 5861 5861 5860 5860 5860 5860 5859 5859 5859 5859 5858 5858 5857 5857 5857 5856 5856 5855 5855 5855 5854 5854 5854 5853 5853 5852 5852
5839 5839 5841 5842 5843 5843 5844 5845 5845 5846 5847 5848 5849 5849 5849 5850 5851 5851 5852 5852 5853 5853 5854 5854 5855 5855 5855 5856 5856 5857 5857 5858 5858 5858 5859 5859 5859 5860 5860 5860 5861 5861 5861 5861 5861 5861 5861 5862 5862 5862 5862 5862 5862 5862 5862 5862 5862 5862 5862 5862 5862 5862 5862 5862 5862 5862 5862 5862 5861 5861 5861 5861 5860 5860 5860 5860 5859 5859 5859 5859 5859 5858 5858 5858 5857 5857 5857 5856 5856 5855 5855 5854 5854 5854 5854 5853 5853 5852 5852 5851 5851 5850 5850
5837 5838 5839 5839 5840 5841 5842 5843 5844 5844 5845 5846 5846 5847 5848 5848 5849 5849 5850 5851 5851 5852 5852 5853 5853 5854 5854 5854 5855 5855 5856 5856 5856 5857 5857 5857 5858 5858 5858 5859 5859 5859 5859 5859 5859 5860 5860 5860 5860 5860 5860 5860 5860 5860 5860 5861 5861 5861 5861 5861 5861 5861 5861 5861 5861 5860 5860 5860 5860 5860 5859 5859 5859 5859 5859 5858 5858 5858 5858 5857 5857 5857 5856 5856 5856 5855 5855 5854 5854 5854 5853 5853 5852 5852 5852 5851 5851 5850 5850 5850 5849 5849 5848
5835 5836 5836 5837 5838 5839 5840 5841 5841 5842 5843 5844 5844 5845 5846 5846 5847 5848 5848 5849 5849 5850 5850 5851 5851 5852 5852 5853 5853 5854 5854 5854 5855 5855 5855 5856 5856 5856 5857 5857 5857 5857 5857 5858 5858 5858 5858 5859 5859 5859 5859 5859 5859 5859 5859 5859 5859 5859 5859 5859 5859 5859 5859 5859 5859 5859 5859 5859 5859 5858 5858 5858 5858 5857 5857 5857 5856 5856 5856 5856 5855 5855 5855 5854 5854 5854 5853 5853 5852 5852 5852 5851 5851 5850 5850 5849 5849 5849 5848 5848 5848 5847 5846
5833 5834 5834 5835 5836 5837 5838 5839 5839 5840 5841 5842 5842 5843 5844 5844 5845 5846 5847 5847 5848 5848 5849 5849 5850 5850 5850 5851 5851 5852 5852 5853 5853 5854 5854 5854 5854 5854 5855 5855 5855 5855 5856 5856 5856 5856 5856 5857 5857 5857 5857 5857 5857 5858 5858 5858 5858 5858 5858 5858 5858 5858 5858 5858 5858 5858 5858 5857 5857 5857 5857 5856 5856 5856 5855 5855 5855 5854 5854 5854 5854 5853 5853 5853 5852 5852 5851 5851 5851 5850 5850 5849 5849 5849 5848 5848 5847 5847 5846 5846 5846 5845 5844
5831 5832 5833 5833 5834 5835 5835 5836 5837 5838 5839 5839 5840 5841 5842 5843 5843 5844 5845 5845 5846 5846 5847 5847 5848 5848 5849 5849 5849 5850 5850 5851 5851 5852 5852 5852 5852 5853 5853 5853 5854 5854 5854 5854 5854 5854 5855 5855 5855 5855 5855 5855 5856 5856 5856 5856 5856 5856 5856 5856 5856 5856 5856 5856 5856 5856 5856 5856 5855 5855 5855 5854 5854 5854 5854 5853 5853 5853 5853 5852 5852 5852 5851 5851 5850 5850 5849 5849 5849 5849 5848 5848 5847 5847 5846 5846 5845 5845 5844 5844 5844 5843 5842
5829 5830 5830 5831 5832 5833 5834 5834 5835 5836 5836 5837 5838 5839 5839 5840 5841 5842 5843 5843 5844 5844 5845 5845 5846 5846 5847 5847 5848 5848 5849 5849 5849 5850 5850 5850 5851 5851 5851 5851 5852 5852 5852 5852 5852 5853 5853 5853 5853 5853 5854 5854 5854 5854 5854 5854 5854 5854 5854 5855 5855 5855 5855 5855 5854 5854 5854 5854 5854 5854 5853 5853 5853 5852 5852 5852 5851 5851 5851 5850 5850 5850 5849 5849 5849 5848 5848 5847 5847 5847 5846 5846 5846 5845 5845 5844 5844 5843 5843 5842 5841 5841 5840
5828 5828 5829 5829 5830 5831 5831 5832 5833 5834 5834 5835 5836 5837 5837 5838 5839 5839 5840 5841 5842 5842 5843 5844 5844 5844 5845 5845 5846 5846 5846 5847 5847 5848 5848 5849 5849 5849 5849 5849 5850 5850 5850 5850 5851 5851 5851 5851 5851 5852 5852 5852 5852 5852 5852 5853 5853 5853 5853 5853 5853 5853 5853 5853 5853 5853 5852 5852 5852 5852 5851 5851 5851 5850 5850 5850 5849 5849 5849 5849 5848 5848 5847 5847 5847 5846 5846 5845 5845 5845 5844 5844 5844 5844 5843 5843 5842 5842 5841 5840 5839 5839 5839
5825 5826 5827 5827 5828 5829 5829 5830 5831 5831 5832 5833 5834 5834 5835 5836 5837 5837 5838 5839 5839 5840 5841 5841 5842 5843 5843 5843 5844 5844 5844 5845 5845 5846 5846 5847 5847 5847 5847 5848 5848 5848 5849 5849 5849 5849 5849 5849 5849 5850 5850 5850 5850 5850 5850 5851 5851 5851 5851 5851 5851 5851 5851 5851 5851 5851 5850 5850 5850 5849 5849 5849 5849 5849 5849 5848 5848 5847 5847 5847 5846 5846 5845 5845 5845 5844 5844 5844 5843 5843 5843 5842 5842 5842 5841 5841 5840 5840 5839 5839 5838 5838 5837
5823 5824 5824 5825 5826 5826 5827 5828 5829 5829 5830 5830 5831 5832 5833 5834 5834 5835 5836 5837 5837 5838 5839 5839 5840 5840 5841 5841 5842 5842 5843 5843 5843 5844 5844 5845 5845 5845 5845 5846 5846 5846 5847 5847 5847 5847 5847 5848 5848 5848 5848 5848 5848 5849 5849 5849 5849 5849 5849 5849 5849 5849 5849 5849 5849 5849 5848 5848 5848 5848 5847 5847 5847 5847 5847 5846 5846 5845 5845 5845 5844 5844 5844 5843 5843 5843 5842 5842 5841 5841 5841 5840 5840 5840 5839 5839 5839 5838 5838 5837 5836 5836 5835
5821 5822 5822 5823 5824 5824 5825 5826 5827 5827 5828 5829 5829 5830 5831 5831 5832 5833 5834 5834 5835 5835 5836 5837 5838 5838 5839 5839 5840 5840 5840 5841 5841 5842 5842 5843 5843 5843 5844 5844 5844 5844 5845 5845 5845 5845 5845 5846 5846 5846 5846 5846 5846 5847 5847 5847 5847 5847 5847 5847 5847 5847 5847 5847 5847 5846 5846 5846 5846 5846 5845 5845 5845 5845 5844 5844 5844 5843 5843 5843 5842 5842 5842 5841 5841 5841 5840 5840 5839 5839 5839 5839 5838 5838 5837 5837 5837 5836 5835 5835 5834 5834 5833
5819 5819 5820 5821 5821 5822 5823 5824 5824 5825 5826 5826 5827 5828 5829 5829 5830 5830 5831 5832 5833 5833 5834 5834 5835 5836 5836 5837 5838 5838 5838 5839 5839 5839 5840 5840 5841 5841 5842 5842 5842 5843 5843 5843 5843 5844 5844 5844 5844 5844 5844 5844 5844 5844 5844 5845 5845 5845 5845 5844 5844 5844 5844 5844 5844 5844 5844 5844 5844 5844 5843 5843 5843 5843 5842 5842 5842 5841 5841 5841 5840 5840 5839 5839 5839 5839 5839 5838 5838 5837 5837 5836 5836 5836 5835 5835 5834 5834 5833 5833 5832 5831 5831
5817 5817 5818 5819 5819 5820 5821 5821 5822 5823 5824 5824 5825 5825 5826 5827 5828 5828 5829 5829 5830 5831 5831 5832 5833 5834 5834 5835 5835 5836 5836 5837 5837 5837 5838 5838 5839 5839 5839 5840 5840 5840 5841 5841 5841 5841 5842 5842 5842 5842 5842 5842 5842 5842 5842 5843 5843 5843 5843 5843 5842 5842 5842 5842 5842 5842 5842 5842 5841 5841 5841 5841 5841 5840 5840 5840 5839 5839 5839 5839 5838 5838 5838 5837 5837 5837 5836 5836 5835 5835 5835 5834 5834 5834 5833 5833 5832 5831 5831 5830 5830 5829 5828
5814 5815 5816 5816 5817 5818 5819 5819 5820 5821 5822 5822 5823 5823 5824 5824 5825 5826 5826 5827 5828 5828 5829 5830 5830 5831 5832 5833 5833 5834 5834 5834 5835 5835 5835 5836 5836 5837 5837 5838 5838 5838 5839 5839 5839 5839 5839 5839 5840 5840 5840 5840 5840 5840 5840 5840 5840 5840 5840 5840 5840 5840 5840 5840 5840 5840 5839 5839 5839 5839 5839 5839 5838 5838 5838 5838 5837 5837 5837 5836 5836 5835 5835 5835 5835 5834 5834 5834 5834 5833 5833 5832 5832 5831 5831 5830 5829 5829 5828 5828 5827 5826 5825
5813 5813 5814 5814 5815 5816 5817 5817 5818 5819 5819 5820 5821 5821 5822 5822 5823 5824 5824 5825 5825 5826 5827 5827 5828 5829 5829 5830 5831 5831 5832 5832 5833 5833 5833 5834 5834 5834 5835 5835 5836 5836 5836 5836 5837 5837 5837 5837 5837 5838 5838 5838 5838 5838 5838 5838 5838 5838 5838 5838 5838 5838 5838 5838 5838 5838 5837 5837 5837 5837 5837 5836 5836 5836 5836 5835 5835 5835 5834 5834 5834 5833 5833 5833 5833 5832 5832 5832 5831 5831 5830 5830 5829 5829 5829 5828 5827 5827 5826 5825 5824 5823 5822
5811 5812 5812 5813 5814 5814 5815 5815 5816 5817 5818 5818 5819 5819 5819 5820 5821 5821 5822 5822 5823 5824 5824 5825 5826 5826 5827 5828 5829 5829 5829 5830 5830 5830 5831 5831 5832 5832 5832 5833 5833 5834 5834 5834 5834 5834 5834 5835 5835 5835 5835 5835 5835 5835 5835 5835 5835 5836 5836 5836 5836 5836 5836 5836 5835 5835 5835 5835 5835 5834 5834 5834 5834 5834 5833 5833 5833 5833 5832 5832 5831 5831 5831 5831 5830 5830 5829 5829 5829 5829 5828 5828 5827 5827 5826 5825 5825 5824 5824 5823 5821 5820 5820
5809 5810 5810 5811 5811 5812 5813 5814 5814 5815 5815 5816 5816 5817 5818 5818 5819 5819 5819 5820 5820 5821 5822 5822 5823 5824 5825 5826 5826 5827 5827 5827 5828 5828 5828 5829 5829 5829 5830 5830 5831 5831 5831 5831 5832 5832 5832 5832 5832 5833 5833 5833 5833 5833 5833 5833 5833 5833 5833 5833 5833 5833 5833 5833 5833 5833 5833 5833 5833 5832 5832 5832 5832 5831 5831 5831 5830 5830 5830 5829 5829 5829 5829 5828 5828 5828 5827 5826 5826 5826 5825 5825 5824 5824 5824 5823 5823 5822 5821 5820 5819 5818 5817
5807 5808 5808 5809 5809 5810 5811 5811 5812 5813 5814 5814 5814 5815 5815 5816 5817 5817 5818 5818 5818 5819 5819 5820 5821 5822 5822 5823 5824 5824 5824 5824 5825 5825 5826 5826 5827 5827 5828 5828 5828 5828 5829 5829 5829 5829 5829 5829 5830 5830 5830 5830 5830 5830 5830 5830 5830 5830 5830 5831 5831 5831 5831 5831 5831 5831 5831 5830 5830 5830 5830 5829 5829 5829 5829 5829 5828 5828 5828 5827 5827 5827 5826 5826 5825 5825 5824 5824 5824 5823 5823 5822 5822 5822 5821 5821 5820 5819 5818 5817 5816 5815 5814
5804 5805 5806 5807 5807 5808 5809 5809 5810 5810 5811 5812 5812 5813 5813 5814 5815 5815 5816 5816 5816 5817 5817 5818 5818 5819 5820 5820 5821 5821 5822 5822 5822 5823 5823 5824 5824 5824 5825 5825 5825 5826 5826 5826 5826 5826 5827 5827 5827 5827 5827 5827 5828 5828 5828 5828 5828 5828 5828 5828 5828 5828 5828 5828 5828 5828 5828 5828 5828 5828 5827 5827 5827 5827 5826 5826 5826 5826 5825 5825 5825 5824 5824 5823 5823 5822 5822 5821 5821 5820 5820 5820 5820 5819 5819 5818 5817 5816 5815 5814 5813 5812 5811
5802 5803 5804 5804 5805 5806 5807 5807 5808 5808 5809 5810 5810 5810 5811 5812 5813 5814 5814 5814 5815 5815 5815 5815 5816 5816 5817 5818 5818 5819 5819 5819 5819 5820 5820 5821 5821 5822 5822 5823 5823 5823 5823 5823 5824 5824 5824 5824 5824 5824 5824 5825 5825 5825 5825 5825 5825 5825 5825 5825 5825 5825 5825 5825 5825 5825 5825 5825 5825 5825 5825 5824 5824 5824 5824 5824 5823 5823 5823 5822 5822 5821 5821 5820 5820 5819 5819 5819 5818 5818 5818 5818 5818 5817 5816 5815 5814 5813 5812 5811 5810 5809 5808
5799 5800 5801 5802 5803 5804 5804 5805 5805 5806 5807 5808 5808 5809 5809 5809 5810 5811 5812 5813 5813 5813 5813 5813 5814 5814 5814 5815 5816 5816 5816 5817 5817 5818 5818 5818 5819 5819 5819 5819 5820 5820 5820 5820 5821 5821 5821 5821 5822 5822 5822 5822 5822 5822 5822 5822 5822 5822 5822 5822 5822 5822 5822 5823 5823 5823 5823 5822 5822 5822 5822 5822 5822 5821 5821 5821 5820 5820 5820 5819 5819 5818 5818 5818 5817 5817 5816 5816 5815 5815 5815 5814 5814 5813 5812 5811 5810 5810 5809 5808 5807 5806 5805
5797 5798 5799 5800 5800 5801 5802 5803 5803 5804 5804 5805 5806 5807 5807 5808 5808 5809 5809 5810 5811 5811 5811 5811 5812 5812 5812 5813 5813 5814 5814 5814 5815 5815 5815 5816 5816 5816 5816 5817 5817 5817 5818 5818 5818 5818 5819 5819 5819 5819 5819 5819 5819 5819 5819 5819 5819 5819 5819 5819 5819 5819 5819 5819 5820 5820 5819 5819 5819 5819 5819 5819 5819 5819 5818 5818 5818 5817 5817 5816 5816 5815 5815 5814 5814 5814 5813 5813 5813 5813 5812 5812 5811 5810 5809 5808 5807 5806 5806 5805 5804 5803 5802
5794 5795 5796 5797 5798 5798 5799 5800 5801 5802 5802 5803 5804 5805 5805 5805 5806 5806 5807 5808 5809 5809 5809 5809 5810 5810 5810 5810 5811 5811 5812 5812 5813 5813 5813 5813 5813 5814 5814 5814 5814 5814 5815 5815 5815 5815 5816 5816 5816 5816 5816 5816 5816 5816 5816 5816 5816 5816 5816 5816 5816 5816 5816 5816 5816 5817 5817 5817 5817 5817 5816 5816 5816 5815 5815 5815 5814 5814 5814 5813 5812 5812 5811 5811 5811 5810 5810 5810 5810 5810 5809 5809 5808 5807 5806 5805 5804 5804 5803 5802 5801 5800 5799
5791 5792 5793 5794 5795 5795 5796 5798 5799 5799 5800 5801 5802 5803 5803 5804 5804 5804 5804 5805 5806 5807 5807 5808 5808 5808 5808 5808 5809 5809 5810 5810 5810 5810 5811 5811 5811 5811 5811 5811 5811 5812 5812 5812 5813 5813 5813 5813 5813 5813 5813 5813 5813 5813 5813 5813 5813 5813 5813 5814 5814 5814 5814 5813 5813 5813 5814 5814 5814 5814 5814 5813 5813 5813 5812 5812 5812 5811 5810 5810 5809 5808 5807 5807 5807 5807 5807 5807 5807 5807 5806 5806 5805 5804 5803 5803 5802 5801 5800 5799 5798 5797 5797
5789 5790 5791 5792 5793 5793 5794 5795 5796 5797 5798 5799 5800 5801 5801 5802 5802 5802 5802 5803 5804 5804 5805 5805 5805 5806 5806 5806 5807 5807 5808 5808 5808 5808 5808 5808 5808 5808 5808 5809 5809 5809 5809 5809 5810 5810 5810 5810 5810 5810 5809 5809 5810 5810 5810 5810 5810 5810 5810 5811 5811 5811 5811 5811 5810 5810 5810 5810 5810 5810 5810 5810 5810 5809 5809 5809 5809 5808 5807 5806 5805 5804 5803 5803 5803 5804 5804 5804 5804 5804 5803 5803 5802 5801 5800 5799 5799 5798 5797 5796 5795 5794 5794
5786 5788 5789 5791 5791 5791 5792 5793 5794 5795 5796 5797 5798 5799 5799 5799 5800 5800 5800 5801 5801 5802 5802 5803 5803 5803 5804 5804 5804 5805 5805 5806 5806 5806 5806 5806 5806 5806 5806 5806 5806 5807 5807 5807 5807 5807 5807 5807 5807 5807 5806 5806 5807 5807 5807 5807 5807 5807 5808 5808 5808 5808 5808 5808 5808 5808 5808 5808 5808 5807 5807 5807 5807 5806 5806 5806 5805 5804 5804 5803 5802 5801 5800 5800 5800 5800 5800 5800 5800 5800 5800 5799 5799 5798 5797 5797 5796 5795 5794 5793 5793 5792 5791
5784 5785 5787 5789 5788 5788 5789 5791 5792 5793 5794 5795 5795 5796 5796 5796 5798 5798 5799 5799 5799 5799 5800 5800 5801 5801 5801 5802 5802 5803 5803 5803 5804 5804 5803 5803 5804 5804 5804 5804 5804 5804 5804 5804 5804 5804 5804 5804 5804 5804 5803 5803 5803 5804 5804 5804 5804 5804 5804 5804 5804 5805 5805 5805 5805 5805 5805 5805 5805 5805 5804 5804 5803 5803 5803 5803 5802 5801 5801 5800 5799 5798 5797 5797 5797 5797 5797 5797 5797 5797 5797 5796 5796 5795 5794 5793 5793 5792 5791 5790 5789 5789 5789
5781 5783 5784 5785 5785 5786 5787 5788 5789 5791 5792 5793 5793 5793 5794 5794 5795 5796 5796 5796 5797 5797 5797 5798 5798 5799 5799 5799 5800 5800 5801 5801 5801 5801 5801 5801 5801 5801 5801 5802 5802 5802 5802 5802 5802 5802 5802 5801 5801 5800 5800 5800 5800 5800 5800 5800 5800 5800 5801 5801 5801 5802 5802 5802 5803 5803 5803 5803 5803 5802 5801 5801 5800 5800 5800 5799 5799 5799 5798 5798 5797 5796 5795 5794 5794 5794 5794 5794 5794 5794 5794 5793 5793 5792 5791 5790 5789 5789 5788 5787 5787 5786 5786
5779 5780 5781 5782 5783 5784 5784 5786 5787 5789 5790 5790 5791 5791 5791 5792 5793 5794 5794 5794 5794 5794 5795 5795 5796 5796 5797 5797 5798 5798 5798 5798 5798 5798 5798 5799 5799 5799 5799 5799 5800 5800 5800 5800 5799 5799 5799 5798 5798 5797 5797 5797 5797 5797 5797 5797 5797 5797 5797 5798 5798 5799 5799 5799 5800 5800 5800 5800 5800 5800 5799 5798 5798 5797 5797 5797 5796 5796 5795 5794 5794 5793 5792 5792 5792 5792 5792 5791 5791 5791 5790 5790 5789 5789 5788 5787 5786 5786 5785 5784 5784 5784 5783
5776 5777 5778 5779 5780 5781 5783 5784 5785 5786 5787 5787 5788 5789 5789 5790 5791 5791 5791 5792 5792 5792 5793 5793 5794 5794 5794 5795 5795 5795 5795 5795 5795 5795 5796 5796 5796 5797 5797 5797 5798 5798 5798 5797 5797 5797 5796 5795 5795 5794 5794 5794 5794 5794 5794 5794 5794 5794 5794 5795 5795 5796 5796 5797 5797 5798 5798 5798 5798 5797 5796 5796 5795 5795 5794 5794 5794 5793 5793 5792 5791 5790 5789 5789 5789 5789 5789 5789 5788 5788 5787 5787 5786 5785 5784 5784 5783 5783 5782 5782 5781 5781 5780
5774 5775 5775 5776 5777 5779 5781 5783 5783 5782 5784 5784 5785 5786 5787 5788 5788 5789 5789 5790 5790 5790 5790 5791 5792 5792 5792 5792 5793 5793 5793 5793 5793 5793 5793 5794 5794 5794 5795 5795 5795 5795 5795 5795 5795 5794 5793 5793 5792 5792 5792 5792 5792 5792 5792 5792 5791 5791 5792 5792 5793 5793 5794 5794 5794 5794 5795 5795 5795 5794 5794 5793 5793 5792 5792 5791 5791 5790 5790 5789 5789 5788 5787 5787 5786 5786 5786 5785 5785 5785 5784 5784 5783 5782 5782 5781 5780 5780 5779 5779 5778 5778 5777
5772 5773 5773 5774 5775 5776 5778 5779 5780 5780 5780 5781 5782 5783 5784 5785 5786 5786 5787 5788 5788 5788 5788 5789 5789 5789 5790 5790 5790 5790 5790 5790 5790 5790 5791 5791 5792 5792 5792 5793 5793 5793 5793 5793 5792 5792 5791 5790 5790 5790 5790 5790 5790 5790 5789 5789 5789 5789 5789 5790 5790 5790 5791 5791 5791 5791 5792 5792 5792 5791 5791 5790 5790 5789 5789 5789 5788 5788 5787 5787 5786 5785 5784 5784 5784 5783 5783 5783 5782 5782 5781 5780 5780 5779 5779 5778 5778 5777 5776 5776 5775 5775 5774
5769 5770 5771 5772 5772 5773 5774 5776 5777 5777 5778 5778 5779 5780 5781 5782 5783 5784 5784 5785 5785 5785 5785 5786 5786 5787 5788 5788 5788 5788 5788 5788 5788 5788 5788 5789 5789 5789 5789 5790 5790 5790 5790 5790 5790 5789 5789 5789 5788 5788 5788 5788 5788 5788 5787 5787 5787 5787 5787 5787 5788 5788 5788 5789 5789 5789 5789 5789 5788 5788 5788 5787 5787 5786 5786 5786 5785 5785 5784 5784 5783 5782 5782 5781 5781 5780 5780 5780 5779 5779 5778 5778 5777 5776 5776 5775 5775 5774 5774 5773 5773 5772 5772
5767 5768 5769 5769 5770 5771 5771 5772 5773 5774 5775 5775 5776 5777 5778 5779 5780 5781 5782 5782 5783 5783 5783 5783 5784 5784 5785 5785 5785 5785 5785 5785 5785 5785 5785 5786 5786 5786 5786 5786 5787 5787 5788 5788 5788 5787 5787 5786 5786 5786 5786 5786 5786 5786 5785 5785 5785 5785 5785 5785 5785 5785 5786 5786 5786 5786 5786 5785 5785 5785 5784 5784 5784 5783 5783 5783 5782 5782 5781 5781 5780 5779 5779 5778 5778 5778 5777 5777 5776 5776 5775 5774 5774 5774 5773 5772 5772 5771 5771 5770 5770 5769 5769
5764 5765 5766 5767 5768 5768 5769 5769 5770 5771 5772 5772 5773 5774 5774 5775 5776 5778 5779 5779 5779 5780 5780 5781 5781 5781 5781 5782 5783 5783 5783 5782 5782 5783 5782 5783 5783 5783 5783 5784 5784 5784 5785 5785 5785 5785 5784 5784 5784 5784 5784 5784 5784 5783 5783 5783 5783 5783 5783 5783 5783 5783 5783 5783 5783 5783 5783 5783 5782 5782 5781 5781 5780 5780 5780 5779 5779 5779 5778 5778 5777 5776 5776 5775 5775 5775 5774 5774 5774 5773 5772 5772 5771 5770 5770 5769 5769 5768 5768 5768 5767 5767 5766
5761 5762 5763 5764 5765 5766 5766 5767 5768 5768 5769 5769 5770 5771 5772 5772 5773 5774 5775 5776 5776 5776 5777 5777 5778 5778 5779 5779 5779 5780 5780 5779 5779 5779 5779 5779 5780 5780 5780 5781 5781 5782 5783 5782 5782 5782 5782 5782 5782 5782 5782 5781 5781 5781 5781 5781 5781 5781 5781 5781 5780 5780 5780 5780 5780 5780 5780 5779 5779 5779 5779 5778 5778 5777 5777 5777 5776 5776 5775 5774 5774 5773 5773 5772 5772 5772 5771 5771 5770 5770 5769 5769 5768 5767 5767 5766 5766 5765 5765 5765 5764 5764 5764
5759 5759 5760 5761 5762 5763 5764 5764 5765 5765 5766 5767 5768 5768 5769 5769 5770 5771 5772 5772 5773 5773 5774 5774 5774 5775 5776 5777 5777 5777 5777 5777 5777 5777 5777 5777 5777 5777 5778 5778 5778 5779 5779 5779 5779 5779 5780 5779 5779 5779 5779 5779 5778 5778 5778 5779 5779 5779 5779 5778 5778 5778 5778 5778 5778 5777 5777 5777 5776 5776 5775 5775 5775 5774 5774 5774 5773 5773 5772 5772 5771 5770 5770 5769 5769 5769 5769 5768 5767 5767 5766 5765 5764 5764 5764 5763 5763 5763 5762 5762 5761 5761 5760
5756 5756 5757 5758 5759 5759 5760 5761 5762 5763 5764 5764 5765 5765 5766 5767 5767 5768 5768 5769 5769 5770 5770 5771 5772 5773 5773 5774 5774 5775 5775 5775 5774 5774 5775 5775 5775 5774 5774 5775 5775 5775 5776 5776 5776 5776 5778 5777 5776 5776 5776 5776 5775 5775 5776 5776 5776 5776 5776 5776 5775 5775 5775 5775 5775 5774 5774 5774 5774 5773 5773 5772 5772 5772 5771 5771 5770 5770 5769 5769 5768 5767 5767 5766 5766 5765 5765 5765 5764 5764 5763 5762 5762 5761 5760 5760 5760 5759 5759 5759 5758 5758 5757
5753 5754 5754 5755 5756 5756 5757 5758 5759 5760 5761 5761 5762 5763 5763 5764 5764 5764 5764 5765 5766 5766 5767 5768 5769 5769 5769 5770 5771 5772 5772 5772 5772 5773 5773 5773 5772 5772 5772 5772 5772 5772 5773 5773 5773 5774 5774 5774 5773 5772 5773 5774 5773 5773 5774 5774 5774 5774 5773 5773 5773 5773 5773 5773 5772 5772 5772 5771 5771 5770 5769 5769 5769 5769 5769 5768 5768 5767 5766 5765 5765 5764 5764 5763 5763 5762 5762 5762 5761 5760 5760 5759 5759 5758 5758 5757 5757 5756 5756 5755 5755 5755 5754
5750 5751 5752 5753 5754 5754 5755 5756 5757 5757 5758 5759 5759 5760 5760 5760 5761 5761 5761 5762 5762 5763 5764 5764 5765 5766 5767 5768 5768 5769 5769 5770 5770 5770 5770 5770 5769 5769 5769 5769 5769 5770 5770 5770 5770 5771 5771 5770 5770 5770 5771 5772 5771 5771 5771 5771 5771 5771 5771 5770 5770 5770 5770 5770 5769 5769 5769 5769 5768 5767 5767 5766 5766 5766 5765 5765 5764 5764 5763 5762 5761 5761 5760 5760 5759 5759 5759 5758 5758 5757 5757 5756 5755 5755 5754 5754 5754 5753 5753 5753 5752 5752 5751
5748 5749 5749 5750 5751 5752 5753 5753 5754 5754 5755 5756 5756 5757 5757 5758 5758 5758 5758 5759 5759 5760 5760 5761 5762 5763 5764 5764 5765 5765 5766 5766 5767 5767 5767 5766 5766 5766 5766 5766 5766 5767 5767 5767 5768 5768 5768 5768 5768 5768 5769 5769 5769 5768 5769 5769 5769 5768 5768 5768 5768 5767 5767 5767 5766 5766 5766 5765 5765 5764 5764 5763 5763 5763 5762 5762 5761 5761 5760 5759 5758 5757 5757 5756 5756 5756 5755 5755 5754 5754 5753 5753 5752 5752 5751 5751 5751 5750 5750 5750 5749 5749 5748
5746 5746 5747 5748 5749 5749 5750 5750 5751 5752 5753 5753 5754 5754 5754 5755 5755 5755 5755 5756 5756 5757 5758 5759 5759 5760 5761 5761 5762 5763 5763 5763 5764 5764 5763 5763 5763 5764 5764 5764 5764 5764 5764 5764 5765 5765 5765 5765 5765 5765 5766 5766 5766 5766 5766 5766 5766 5765 5765 5765 5764 5764 5764 5764 5763 5763 5763 5762 5761 5761 5760 5760 5760 5759 5759 5759 5759 5758 5757 5756 5755 5754 5753 5753 5752 5752 5752 5751 5751 5750 5750 5749 5749 5749 5748 5748 5748 5747 5747 5747 5746 5746 5745
5744 5744 5745 5745 5746 5747 5747 5748 5749 5750 5750 5751 5751 5752 5752 5752 5752 5753 5753 5753 5754 5754 5755 5756 5756 5757 5758 5758 5759 5759 5759 5760 5760 5760 5760 5760 5760 5761 5761 5760 5760 5761 5761 5761 5762 5762 5762 5762 5762 5763 5763 5763 5763 5763 5763 5763 5762 5762 5762 5762 5761 5761 5760 5760 5760 5759 5759 5758 5758 5757 5757 5757 5756 5756 5756 5756 5755 5755 5754 5753 5752 5750 5750 5749 5749 5748 5748 5747 5747 5746 5746 5746 5745 5745 5745 5744 5744 5744 5744 5743 5743 5743 5742
5741 5742 5743 5743 5744 5744 5745 5746 5747 5747 5748 5748 5749 5749 5749 5750 5750 5750 5751 5751 5751 5752 5752 5753 5753 5754 5754 5755 5756 5756 5756 5757 5757 5757 5757 5757 5757 5758 5758 5757 5758 5758 5758 5759 5759 5759 5758 5758 5759 5759 5759 5759 5759 5760 5760 5760 5760 5759 5759 5759 5758 5758 5757 5757 5756 5756 5755 5755 5754 5754 5754 5753 5753 5753 5753 5752 5752 5751 5750 5749 5748 5747 5746 5745 5745 5744 5744 5743 5743 5743 5743 5742 5742 5742 5741 5741 5741 5741 5740 5740 5740 5739 5739
5739 5739 5740 5741 5742 5742 5743 5744 5744 5744 5745 5746 5746 5747 5747 5747 5748 5748 5749 5749 5749 5749 5749 5750 5750 5751 5751 5752 5753 5753 5754 5754 5754 5754 5754 5754 5754 5754 5754 5754 5754 5755 5755 5755 5756 5756 5755 5755 5755 5755 5755 5755 5755 5756 5757 5758 5758 5757 5756 5756 5755 5755 5754 5754 5754 5753 5752 5752 5751 5751 5750 5750 5749 5749 5749 5749 5748 5747 5746 5745 5744 5744 5743 5742 5741 5741 5740 5740 5739 5739 5739 5739 5738 5738 5738 5738 5738 5737 5737 5737 5736 5736 5736